Year,Month,Day,Hour,Minute,Value (Times are PST for temperature in C)
2014,01,14,10,20,8.90
2014,01,14,10,21,8.90
2014,01,14,10,22,8.90
2014,01,14,10,23,8.90
2014,01,14,10,24,8.90
2014,01,14,10,25,8.90
2014,01,14,10,26,8.90
2014,01,14,10,27,8.90
2014,01,14,10,28,8.90
2014,01,14,10,29,8.90
2014,01,14,10,30,8.90
2014,01,14,10,31,8.90
2014,01,14,10,32,8.90
2014,01,14,10,33,8.90
2014,01,14,10,34,8.90
2014,01,14,10,35,8.90
2014,01,14,10,36,9.00
2014,01,14,10,37,9.00
2014,01,14,10,38,8.90
2014,01,14,10,39,9.00
2014,01,14,10,40,9.00
2014,01,14,10,41,9.00
2014,01,14,10,42,9.00
2014,01,14,10,43,9.00
2014,01,14,10,44,9.00
2014,01,14,10,45,9.00
2014,01,14,10,46,9.10
2014,01,14,10,47,9.00
2014,01,14,10,48,9.10
2014,01,14,10,49,9.10
2014,01,14,10,50,9.10
2014,01,14,10,51,9.10
2014,01,14,10,52,9.10
2014,01,14,10,53,9.10
2014,01,14,10,54,9.10
2014,01,14,10,55,9.10
2014,01,14,10,56,9.10
2014,01,14,10,57,9.20
2014,01,14,10,58,9.20
2014,01,14,10,59,9.20
2014,01,14,11,00,9.20
2014,01,14,11,01,9.20
2014,01,14,11,02,9.20
2014,01,14,11,03,9.20
2014,01,14,11,04,9.20
2014,01,14,11,05,9.20
2014,01,14,11,06,9.20
2014,01,14,11,07,9.20
2014,01,14,11,08,9.20
2014,01,14,11,09,9.30
2014,01,14,11,10,9.30
2014,01,14,11,11,9.30
2014,01,14,11,12,9.30
2014,01,14,11,13,9.20
2014,01,14,11,14,9.20
2014,01,14,11,15,9.20
2014,01,14,11,16,9.20
2014,01,14,11,17,9.20
2014,01,14,11,18,9.20
2014,01,14,11,19,9.20
2014,01,14,11,20,9.20
2014,01,14,11,21,9.20
2014,01,14,11,22,9.20
2014,01,14,11,23,9.20
2014,01,14,11,24,9.20
2014,01,14,11,25,9.20
2014,01,14,11,26,9.20
2014,01,14,11,27,9.20
2014,01,14,11,28,9.20
2014,01,14,11,29,9.20
2014,01,14,11,30,9.20
2014,01,14,11,31,9.20
2014,01,14,11,32,9.20
2014,01,14,11,33,9.20
2014,01,14,11,34,9.20
2014,01,14,11,35,9.20
2014,01,14,11,36,9.20
2014,01,14,11,37,9.20
2014,01,14,11,38,9.20
2014,01,14,11,39,9.20
2014,01,14,11,40,9.20
2014,01,14,11,41,9.20
2014,01,14,11,42,9.20
2014,01,14,11,43,9.20
2014,01,14,11,44,9.20
2014,01,14,11,45,9.20
2014,01,14,11,46,9.20
2014,01,14,11,47,9.20
2014,01,14,11,48,9.20
2014,01,14,11,49,9.20
2014,01,14,11,50,9.20
2014,01,14,11,51,9.20
2014,01,14,11,52,9.20
2014,01,14,11,53,9.20
2014,01,14,11,54,9.10
2014,01,14,11,55,9.10
2014,01,14,11,56,9.10
2014,01,14,11,57,9.10
2014,01,14,11,58,9.10
2014,01,14,11,59,9.10
2014,01,14,12,00,9.10
2014,01,14,12,01,9.10
2014,01,14,12,02,9.10
2014,01,14,12,03,9.20
2014,01,14,12,04,9.20
2014,01,14,12,05,9.20
2014,01,14,12,06,9.20
2014,01,14,12,07,9.20
2014,01,14,12,08,9.20
2014,01,14,12,09,9.20
2014,01,14,12,10,9.20
2014,01,14,12,11,9.20
2014,01,14,12,12,9.20
2014,01,14,12,13,9.20
2014,01,14,12,14,9.20
2014,01,14,12,15,9.20
2014,01,14,12,16,9.20
2014,01,14,12,17,9.20
2014,01,14,12,18,9.20
2014,01,14,12,19,9.20
2014,01,14,12,20,9.20
2014,01,14,12,21,9.20
2014,01,14,12,22,9.30
2014,01,14,12,23,9.30
2014,01,14,12,24,9.30
2014,01,14,12,25,9.30
2014,01,14,12,26,9.30
2014,01,14,12,27,9.30
2014,01,14,12,28,9.30
2014,01,14,12,29,9.40
2014,01,14,12,30,9.40
2014,01,14,12,31,9.40
2014,01,14,12,32,9.40
2014,01,14,12,33,9.40
2014,01,14,12,34,9.50
2014,01,14,12,35,9.50
2014,01,14,12,36,9.50
2014,01,14,12,37,9.60
2014,01,14,12,38,9.60
2014,01,14,12,39,9.60
2014,01,14,12,40,9.60
2014,01,14,12,41,9.60
2014,01,14,12,42,9.60
2014,01,14,12,43,9.70
2014,01,14,12,44,9.70
2014,01,14,12,45,9.70
2014,01,14,12,46,9.70
2014,01,14,12,47,9.70
2014,01,14,12,48,9.70
2014,01,14,12,49,9.70
2014,01,14,12,50,9.70
2014,01,14,12,51,9.70
2014,01,14,12,52,9.80
2014,01,14,12,53,9.80
2014,01,14,12,54,9.80
2014,01,14,12,55,9.80
2014,01,14,12,56,9.80
2014,01,14,12,57,9.80
2014,01,14,12,58,9.80
2014,01,14,12,59,9.80
2014,01,14,13,00,9.80
2014,01,14,13,01,9.80
2014,01,14,13,02,9.80
2014,01,14,13,03,9.80
2014,01,14,13,04,9.90
2014,01,14,13,05,9.90
2014,01,14,13,06,9.90
2014,01,14,13,07,9.90
2014,01,14,13,08,10.00
2014,01,14,13,09,10.00
2014,01,14,13,10,10.00
2014,01,14,13,11,10.00
2014,01,14,13,12,10.10
2014,01,14,13,13,10.10
2014,01,14,13,14,10.10
2014,01,14,13,15,10.10
2014,01,14,13,16,10.20
2014,01,14,13,17,10.20
2014,01,14,13,18,10.20
2014,01,14,13,19,10.30
2014,01,14,13,20,10.30
2014,01,14,13,21,10.30
2014,01,14,13,22,10.30
2014,01,14,13,23,10.30
2014,01,14,13,24,10.30
2014,01,14,13,25,10.40
2014,01,14,13,26,10.40
2014,01,14,13,27,10.50
2014,01,14,13,28,10.50
2014,01,14,13,29,10.60
2014,01,14,13,30,10.60
2014,01,14,13,31,10.60
2014,01,14,13,32,10.70
2014,01,14,13,33,10.70
2014,01,14,13,34,10.70
2014,01,14,13,35,10.80
2014,01,14,13,36,10.80
2014,01,14,13,37,10.80
2014,01,14,13,38,10.80
2014,01,14,13,39,10.90
2014,01,14,13,40,10.90
2014,01,14,13,41,10.90
2014,01,14,13,42,10.90
2014,01,14,13,43,10.90
2014,01,14,13,44,10.90
2014,01,14,13,45,10.90
2014,01,14,13,46,10.90
2014,01,14,13,47,10.90
2014,01,14,13,48,11.00
2014,01,14,13,49,11.00
2014,01,14,13,50,11.00
2014,01,14,13,51,11.10
2014,01,14,13,52,11.10
2014,01,14,13,53,11.10
2014,01,14,13,54,11.20
2014,01,14,13,55,11.20
2014,01,14,13,56,11.20
2014,01,14,13,57,11.20
2014,01,14,13,58,11.20
2014,01,14,13,59,11.20
2014,01,14,14,00,11.20
2014,01,14,14,01,11.20
2014,01,14,14,02,11.20
2014,01,14,14,03,11.20
2014,01,14,14,04,11.30
2014,01,14,14,05,11.30
2014,01,14,14,06,11.30
2014,01,14,14,07,11.30
2014,01,14,14,08,11.30
2014,01,14,14,09,11.30
2014,01,14,14,10,11.30
2014,01,14,14,11,11.30
2014,01,14,14,12,11.30
2014,01,14,14,13,11.30
2014,01,14,14,14,11.30
2014,01,14,14,15,11.30
2014,01,14,14,16,11.30
2014,01,14,14,17,11.30
2014,01,14,14,18,11.30
2014,01,14,14,19,11.30
2014,01,14,14,20,11.30
2014,01,14,14,21,11.30
2014,01,14,14,22,11.30
2014,01,14,14,23,11.30
2014,01,14,14,24,11.30
2014,01,14,14,25,11.30
2014,01,14,14,26,11.30
2014,01,14,14,27,11.30
2014,01,14,14,28,11.30
2014,01,14,14,29,11.20
2014,01,14,14,30,11.20
2014,01,14,14,31,11.20
2014,01,14,14,32,11.20
2014,01,14,14,33,11.30
2014,01,14,14,34,11.30
2014,01,14,14,35,11.30
2014,01,14,14,36,11.30
2014,01,14,14,37,11.30
2014,01,14,14,38,11.30
2014,01,14,14,39,11.40
2014,01,14,14,40,11.40
2014,01,14,14,41,11.40
2014,01,14,14,42,11.40
2014,01,14,14,43,11.40
2014,01,14,14,44,11.40
2014,01,14,14,45,11.40
2014,01,14,14,46,11.40
2014,01,14,14,47,11.40
2014,01,14,14,48,11.40
2014,01,14,14,49,11.40
2014,01,14,14,50,11.40
2014,01,14,14,51,11.40
2014,01,14,14,52,11.30
2014,01,14,14,53,11.30
2014,01,14,14,54,11.30
2014,01,14,14,55,11.30
2014,01,14,14,56,11.20
2014,01,14,14,57,11.20
2014,01,14,14,58,11.20
2014,01,14,14,59,11.20
2014,01,14,15,08,10.90
2014,01,14,15,09,10.90
2014,01,14,15,10,10.90
2014,01,14,15,11,10.80
2014,01,14,15,12,10.80
2014,01,14,15,13,10.90
2014,01,14,15,14,10.90
2014,01,14,15,15,10.90
2014,01,14,15,16,10.90
2014,01,14,15,17,10.90
2014,01,14,15,18,10.90
2014,01,14,15,19,10.90
2014,01,14,15,20,10.90
2014,01,14,15,21,10.90
2014,01,14,15,22,10.90
2014,01,14,15,23,10.90
2014,01,14,15,24,10.90
2014,01,14,15,25,11.00
2014,01,14,15,26,11.00
2014,01,14,15,27,11.00
2014,01,14,15,28,11.00
2014,01,14,15,29,11.10
2014,01,14,15,30,11.10
2014,01,14,15,31,11.10
2014,01,14,15,32,11.10
2014,01,14,15,33,11.10
2014,01,14,15,34,11.10
2014,01,14,15,35,11.10
2014,01,14,15,36,11.20
2014,01,14,15,37,11.20
2014,01,14,15,38,11.20
2014,01,14,15,39,11.20
2014,01,14,15,40,11.20
2014,01,14,15,41,11.20
2014,01,14,15,42,11.30
2014,01,14,15,43,11.30
2014,01,14,15,44,11.30
2014,01,14,15,45,11.30
2014,01,14,15,46,11.20
2014,01,14,15,47,11.20
2014,01,14,15,48,11.20
2014,01,14,15,49,11.20
2014,01,14,15,50,11.30
2014,01,14,15,51,11.30
2014,01,14,15,52,11.30
2014,01,14,15,53,11.30
2014,01,14,15,54,11.30
2014,01,14,15,55,11.20
2014,01,14,15,56,11.20
2014,01,14,15,57,11.20
2014,01,14,15,58,11.20
2014,01,14,15,59,11.20
2014,01,14,16,00,11.20
2014,01,14,16,01,11.20
2014,01,14,16,02,11.20
2014,01,14,16,03,11.20
2014,01,14,16,04,11.20
2014,01,14,16,05,11.20
2014,01,14,16,06,11.10
2014,01,14,16,07,11.10
2014,01,14,16,08,11.10
2014,01,14,16,09,11.10
2014,01,14,16,10,11.10
2014,01,14,16,11,11.10
2014,01,14,16,12,11.10
2014,01,14,16,13,11.10
2014,01,14,16,14,11.10
2014,01,14,16,15,11.00
2014,01,14,16,16,11.00
2014,01,14,16,17,11.00
2014,01,14,16,18,11.00
2014,01,14,16,19,11.00
2014,01,14,16,20,10.90
2014,01,14,16,21,10.90
2014,01,14,16,22,10.90
2014,01,14,16,23,10.90
2014,01,14,16,24,10.90
2014,01,14,16,25,10.80
2014,01,14,16,26,10.80
2014,01,14,16,27,10.80
2014,01,14,16,28,10.80
2014,01,14,16,29,10.80
2014,01,14,16,30,10.70
2014,01,14,16,31,10.70
2014,01,14,16,32,10.70
2014,01,14,16,33,10.60
2014,01,14,16,34,10.60
2014,01,14,16,35,10.50
2014,01,14,16,36,10.50
2014,01,14,16,37,10.40
2014,01,14,16,38,10.40
2014,01,14,16,39,10.40
2014,01,14,16,40,10.30
2014,01,14,16,41,10.30
2014,01,14,16,42,10.30
2014,01,14,16,43,10.20
2014,01,14,16,44,10.20
2014,01,14,16,45,10.20
2014,01,14,16,46,10.20
2014,01,14,16,47,10.10
2014,01,14,16,48,10.10
2014,01,14,16,49,10.10
2014,01,14,16,50,10.10
2014,01,14,16,51,10.10
2014,01,14,16,52,10.10
2014,01,14,16,53,10.00
2014,01,14,16,54,10.00
2014,01,14,16,55,10.00
2014,01,14,16,56,9.90
2014,01,14,16,57,9.90
2014,01,14,16,58,9.90
2014,01,14,16,59,9.90
2014,01,14,17,00,9.90
2014,01,14,17,01,9.90
2014,01,14,17,02,9.80
2014,01,14,17,03,9.80
2014,01,14,17,04,9.80
2014,01,14,17,05,9.80
2014,01,14,17,06,9.80
2014,01,14,17,07,9.70
2014,01,14,17,08,9.70
2014,01,14,17,09,9.70
2014,01,14,17,10,9.70
2014,01,14,17,11,9.70
2014,01,14,17,12,9.70
2014,01,14,17,13,9.70
2014,01,14,17,14,9.70
2014,01,14,17,15,9.70
2014,01,14,17,16,9.70
2014,01,14,17,17,9.70
2014,01,14,17,18,9.70
2014,01,14,17,19,9.60
2014,01,14,17,20,9.60
2014,01,14,17,21,9.60
2014,01,14,17,22,9.60
2014,01,14,17,23,9.60
2014,01,14,17,24,9.60
2014,01,14,17,25,9.60
2014,01,14,17,26,9.60
2014,01,14,17,27,9.60
2014,01,14,17,28,9.60
2014,01,14,17,29,9.60
2014,01,14,17,30,9.60
2014,01,14,17,31,9.60
2014,01,14,17,32,9.60
2014,01,14,17,33,9.60
2014,01,14,17,34,9.60
2014,01,14,17,35,9.50
2014,01,14,17,36,9.50
2014,01,14,17,37,9.50
2014,01,14,17,38,9.50
2014,01,14,17,39,9.50
2014,01,14,17,40,9.50
2014,01,14,17,41,9.50
2014,01,14,17,42,9.50
2014,01,14,17,43,9.50
2014,01,14,17,44,9.50
2014,01,14,17,45,9.50
2014,01,14,17,46,9.50
2014,01,14,17,47,9.40
2014,01,14,17,48,9.40
2014,01,14,17,49,9.40
2014,01,14,17,50,9.40
2014,01,14,17,51,9.40
2014,01,14,17,52,9.40
2014,01,14,17,53,9.40
2014,01,14,17,54,9.40
2014,01,14,17,55,9.40
2014,01,14,17,56,9.30
2014,01,14,17,57,9.30
2014,01,14,17,58,9.30
2014,01,14,17,59,9.30
2014,01,14,18,00,9.30
2014,01,14,18,01,9.30
2014,01,14,18,02,9.30
2014,01,14,18,03,9.30
2014,01,14,18,04,9.30
2014,01,14,18,05,9.30
2014,01,14,18,06,9.30
2014,01,14,18,07,9.30
2014,01,14,18,08,9.30
2014,01,14,18,09,9.20
2014,01,14,18,10,9.20
2014,01,14,18,11,9.20
2014,01,14,18,12,9.20
2014,01,14,18,13,9.20
2014,01,14,18,14,9.20
2014,01,14,18,15,9.20
2014,01,14,18,16,9.20
2014,01,14,18,17,9.20
2014,01,14,18,18,9.20
2014,01,14,18,19,9.20
2014,01,14,18,20,9.20
2014,01,14,18,21,9.20
2014,01,14,18,22,9.20
2014,01,14,18,23,9.20
2014,01,14,18,24,9.20
2014,01,14,18,25,9.20
2014,01,14,18,26,9.20
2014,01,14,18,27,9.20
2014,01,14,18,28,9.20
2014,01,14,18,29,9.20
2014,01,14,18,30,9.20
2014,01,14,18,31,9.20
2014,01,14,18,32,9.20
2014,01,14,18,33,9.20
2014,01,14,18,34,9.20
2014,01,14,18,35,9.10
2014,01,14,18,36,9.10
2014,01,14,18,37,9.10
2014,01,14,18,38,9.10
2014,01,14,18,39,9.10
2014,01,14,18,40,9.10
2014,01,14,18,41,9.10
2014,01,14,18,42,9.10
2014,01,14,18,43,9.10
2014,01,14,18,44,9.10
2014,01,14,18,45,9.10
2014,01,14,18,46,9.10
2014,01,14,18,47,9.10
2014,01,14,18,48,9.10
2014,01,14,18,49,9.10
2014,01,14,18,50,9.10
2014,01,14,18,51,9.10
2014,01,14,18,52,9.10
2014,01,14,18,53,9.10
2014,01,14,18,54,9.10
2014,01,14,18,55,9.10
2014,01,14,18,56,9.10
2014,01,14,18,57,9.10
2014,01,14,18,58,9.10
2014,01,14,18,59,9.10
2014,01,14,19,00,9.10
2014,01,14,19,01,9.10
2014,01,14,19,02,9.10
2014,01,14,19,03,9.10
2014,01,14,19,04,9.10
2014,01,14,19,05,9.10
2014,01,14,19,06,9.10
2014,01,14,19,07,9.10
2014,01,14,19,08,9.10
2014,01,14,19,09,9.10
2014,01,14,19,10,9.10
2014,01,14,19,11,9.10
2014,01,14,19,12,9.10
2014,01,14,19,13,9.10
2014,01,14,19,14,9.10
2014,01,14,19,15,9.10
2014,01,14,19,16,9.10
2014,01,14,19,17,9.10
2014,01,14,19,18,9.00
2014,01,14,19,19,9.10
2014,01,14,19,20,9.00
2014,01,14,19,21,9.10
2014,01,14,19,22,9.00
2014,01,14,19,23,9.00
2014,01,14,19,24,9.10
2014,01,14,19,25,9.00
2014,01,14,19,26,9.00
2014,01,14,19,27,9.00
2014,01,14,19,28,9.00
2014,01,14,19,29,9.00
2014,01,14,19,30,9.00
2014,01,14,19,31,9.00
2014,01,14,19,32,9.00
2014,01,14,19,33,9.00
2014,01,14,19,34,9.00
2014,01,14,19,35,9.00
2014,01,14,19,36,9.00
2014,01,14,19,37,9.00
2014,01,14,19,38,9.00
2014,01,14,19,39,9.00
2014,01,14,19,40,9.00
2014,01,14,19,41,9.00
2014,01,14,19,42,9.00
2014,01,14,19,43,9.00
2014,01,14,19,44,9.00
2014,01,14,19,45,9.00
2014,01,14,19,46,9.00
2014,01,14,19,47,8.90
2014,01,14,19,48,8.90
2014,01,14,19,49,8.90
2014,01,14,19,50,8.90
2014,01,14,19,51,8.90
2014,01,14,19,52,8.90
2014,01,14,19,53,8.90
2014,01,14,19,54,8.90
2014,01,14,19,55,8.90
2014,01,14,19,56,8.80
2014,01,14,19,57,8.80
2014,01,14,19,58,8.80
2014,01,14,19,59,8.80
2014,01,14,20,00,8.80
2014,01,14,20,01,8.80
2014,01,14,20,02,8.80
2014,01,14,20,03,8.80
2014,01,14,20,04,8.80
2014,01,14,20,05,8.80
2014,01,14,20,06,8.80
2014,01,14,20,07,8.80
2014,01,14,20,08,8.80
2014,01,14,20,09,8.80
2014,01,14,20,10,8.70
2014,01,14,20,11,8.70
2014,01,14,20,12,8.70
2014,01,14,20,13,8.70
2014,01,14,20,14,8.70
2014,01,14,20,15,8.70
2014,01,14,20,16,8.70
2014,01,14,20,17,8.70
2014,01,14,20,18,8.60
2014,01,14,20,19,8.60
2014,01,14,20,20,8.60
2014,01,14,20,21,8.60
2014,01,14,20,22,8.60
2014,01,14,20,23,8.60
2014,01,14,20,24,8.60
2014,01,14,20,25,8.60
2014,01,14,20,26,8.60
2014,01,14,20,27,8.60
2014,01,14,20,28,8.60
2014,01,14,20,29,8.50
2014,01,14,20,30,8.50
2014,01,14,20,31,8.50
2014,01,14,20,32,8.50
2014,01,14,20,33,8.50
2014,01,14,20,34,8.50
2014,01,14,20,35,8.50
2014,01,14,20,36,8.50
2014,01,14,20,37,8.50
2014,01,14,20,38,8.50
2014,01,14,20,39,8.50
2014,01,14,20,40,8.50
2014,01,14,20,41,8.50
2014,01,14,20,42,8.40
2014,01,14,20,43,8.40
2014,01,14,20,44,8.40
2014,01,14,20,45,8.40
2014,01,14,20,46,8.40
2014,01,14,20,47,8.40
2014,01,14,20,48,8.40
2014,01,14,20,49,8.40
2014,01,14,20,50,8.40
2014,01,14,20,51,8.40
2014,01,14,20,52,8.40
2014,01,14,20,53,8.30
2014,01,14,20,54,8.30
2014,01,14,20,55,8.30
2014,01,14,20,56,8.30
2014,01,14,20,57,8.30
2014,01,14,20,58,8.20
2014,01,14,20,59,8.20
2014,01,14,21,00,8.20
2014,01,14,21,01,8.20
2014,01,14,21,02,8.20
2014,01,14,21,03,8.20
2014,01,14,21,04,8.10
2014,01,14,21,05,8.10
2014,01,14,21,06,8.10
2014,01,14,21,07,8.10
2014,01,14,21,08,8.10
2014,01,14,21,09,8.10
2014,01,14,21,10,8.00
2014,01,14,21,11,8.00
2014,01,14,21,12,8.00
2014,01,14,21,13,7.90
2014,01,14,21,14,7.90
2014,01,14,21,15,7.90
2014,01,14,21,16,7.90
2014,01,14,21,17,7.90
2014,01,14,21,18,7.80
2014,01,14,21,19,7.80
2014,01,14,21,20,7.80
2014,01,14,21,21,7.80
2014,01,14,21,22,7.80
2014,01,14,21,23,7.80
2014,01,14,21,24,7.80
2014,01,14,21,25,7.80
2014,01,14,21,26,7.80
2014,01,14,21,27,7.80
2014,01,14,21,28,7.80
2014,01,14,21,29,7.80
2014,01,14,21,30,7.80
2014,01,14,21,31,7.80
2014,01,14,21,32,7.80
2014,01,14,21,33,7.80
2014,01,14,21,34,7.80
2014,01,14,21,35,7.70
2014,01,14,21,36,7.70
2014,01,14,21,37,7.70
2014,01,14,21,38,7.70
2014,01,14,21,39,7.70
2014,01,14,21,40,7.60
2014,01,14,21,41,7.60
2014,01,14,21,42,7.60
2014,01,14,21,43,7.60
2014,01,14,21,44,7.60
2014,01,14,21,45,7.60
2014,01,14,21,46,7.60
2014,01,14,21,47,7.60
2014,01,14,21,48,7.60
2014,01,14,21,49,7.60
2014,01,14,21,50,7.60
2014,01,14,21,51,7.60
2014,01,14,21,52,7.60
2014,01,14,21,53,7.60
2014,01,14,21,54,7.60
2014,01,14,21,55,7.60
2014,01,14,21,56,7.60
2014,01,14,21,57,7.50
2014,01,14,21,58,7.50
2014,01,14,21,59,7.50
2014,01,14,22,00,7.50
2014,01,14,22,01,7.50
2014,01,14,22,02,7.50
2014,01,14,22,03,7.50
2014,01,14,22,04,7.40
2014,01,14,22,05,7.40
2014,01,14,22,06,7.40
2014,01,14,22,07,7.40
2014,01,14,22,08,7.40
2014,01,14,22,09,7.50
2014,01,14,22,10,7.50
2014,01,14,22,11,7.50
2014,01,14,22,12,7.50
2014,01,14,22,13,7.50
2014,01,14,22,14,7.50
2014,01,14,22,15,7.50
2014,01,14,22,16,7.50
2014,01,14,22,17,7.50
2014,01,14,22,18,7.50
2014,01,14,22,19,7.50
2014,01,14,22,20,7.50
2014,01,14,22,21,7.50
2014,01,14,22,22,7.50
2014,01,14,22,23,7.50
2014,01,14,22,24,7.50
2014,01,14,22,25,7.40
2014,01,14,22,26,7.40
2014,01,14,22,27,7.40
2014,01,14,22,28,7.40
2014,01,14,22,29,7.40
2014,01,14,22,30,7.40
2014,01,14,22,31,7.50
2014,01,14,22,32,7.40
2014,01,14,22,33,7.50
2014,01,14,22,34,7.50
2014,01,14,22,35,7.50
2014,01,14,22,36,7.50
2014,01,14,22,37,7.50
2014,01,14,22,38,7.50
2014,01,14,22,39,7.50
2014,01,14,22,40,7.50
2014,01,14,22,41,7.50
2014,01,14,22,42,7.50
2014,01,14,22,43,7.60
2014,01,14,22,44,7.60
2014,01,14,22,45,7.60
2014,01,14,22,46,7.60
2014,01,14,22,47,7.60
2014,01,14,22,48,7.60
2014,01,14,22,49,7.60
2014,01,14,22,50,7.60
2014,01,14,22,51,7.60
2014,01,14,22,52,7.60
2014,01,14,22,53,7.60
2014,01,14,22,54,7.60
2014,01,14,22,55,7.70
2014,01,14,22,56,7.70
2014,01,14,22,57,7.70
2014,01,14,22,58,7.70
2014,01,14,22,59,7.70
2014,01,14,23,00,7.70
2014,01,14,23,01,7.70
2014,01,14,23,02,7.70
2014,01,14,23,03,7.70
2014,01,14,23,04,7.80
2014,01,14,23,05,7.80
2014,01,14,23,06,7.80
2014,01,14,23,07,7.80
2014,01,14,23,08,7.80
2014,01,14,23,09,7.80
2014,01,14,23,10,7.80
2014,01,14,23,11,7.80
2014,01,14,23,12,7.90
2014,01,14,23,13,7.90
2014,01,14,23,14,7.90
2014,01,14,23,15,7.90
2014,01,14,23,16,7.90
2014,01,14,23,17,7.90
2014,01,14,23,18,7.90
2014,01,14,23,19,7.90
2014,01,14,23,20,7.90
2014,01,14,23,21,7.90
2014,01,14,23,22,7.90
2014,01,14,23,23,7.90
2014,01,14,23,24,7.90
2014,01,14,23,25,7.90
2014,01,14,23,26,7.90
2014,01,14,23,27,7.90
2014,01,14,23,28,7.90
2014,01,14,23,29,7.90
2014,01,14,23,30,7.90
2014,01,14,23,31,7.90
2014,01,14,23,32,7.90
2014,01,14,23,33,7.90
2014,01,14,23,34,7.90
2014,01,14,23,35,7.90
2014,01,14,23,36,7.90
2014,01,14,23,37,7.90
2014,01,14,23,38,8.00
2014,01,14,23,39,8.00
2014,01,14,23,40,8.00
2014,01,14,23,41,8.00
2014,01,14,23,42,8.10
2014,01,14,23,43,8.10
2014,01,14,23,44,8.10
2014,01,14,23,45,8.10
2014,01,14,23,46,8.10
2014,01,14,23,47,8.10
2014,01,14,23,48,8.10
2014,01,14,23,49,8.20
2014,01,14,23,50,8.20
2014,01,14,23,51,8.20
2014,01,14,23,52,8.20
2014,01,14,23,53,8.20
2014,01,14,23,54,8.20
2014,01,14,23,55,8.20
2014,01,14,23,56,8.20
2014,01,14,23,57,8.20
2014,01,14,23,58,8.20
2014,01,14,23,59,8.20
